Shannon, Ireland

8:17 AM IST on June 23, 2017 (GMT +0100)
Shannon

Weather History for EINN - May, 2012

Change the Weather History Date:

Friday, May 11, 2012

  Actual Average Record
Temperature  
Mean Temperature 48 °F -  
Max Temperature 56 °F 61 °F 71 °F (2001)
Min Temperature 41 °F 47 °F 37 °F (2005)
Degree Days  
Heating Degree Days 16    
Moisture  
Dew Point 38 °F    
Average Humidity 69    
Maximum Humidity 87    
Minimum Humidity 40    
Precipitation  
Precipitation 0.00 in 0.08 in - ()
Sea Level Pressure  
Sea Level Pressure 30.34 in    
Wind  
Wind Speed 11 mph ()    
Max Wind Speed 20 mph    
Max Gust Speed 33 mph    
Visibility 6.6 miles    
Events Rain    
Averages and records for this station are not official NWS values.
T = Trace of Precipitation, MM = Missing Value Source: Averaged Metar Reports

Daily Weather History Graph

Daily Weather History Graph

Search for Another Location

Airport or City:

Trip Planner

Search our weather history database for the weather conditions in past years. The results will help you decide how hot, cold, wet, or windy it might be!

Date:

Astronomy

May. 11, 2012 Rise Set
Actual Time 5:44 AM IST 9:20 PM IST
Civil Twilight 5:02 AM IST 10:02 PM IST
Nautical Twilight 4:04 AM IST 11:01 PM IST
Astronomical Twilight 2:36 AM IST 12:33 AM IST
Moon 1:47 AM IST (5/11) 11:08 AM IST (5/11)
Length of Visible Light 17h 00m
Length of Day
15h 35m
Waning Gibbous, 65% of the Moon is Illuminated
May 11
Waning Gibbous
May 12
Last Quarter
May 21
New
May 28
First Quarter
Jun 4
Full

Hourly Weather History & Observations

Time (IST) Temp. Windchill Dew Point Humidity Pressure Visibility Wind Dir Wind Speed Gust Speed Precip Events Conditions
12:00 AM 46.4 °F 41.1 °F 42.8 °F 87% 29.95 in 6.2 mi NW 11.5 mph - N/A   Mostly Cloudy
12:30 AM 44.6 °F 39.2 °F 41.0 °F 87% 29.98 in 6.2 mi WNW 10.4 mph - N/A   Scattered Clouds
1:00 AM 44 °F - 41 °F 84% 30.02 in 12 mi West 8.9 mph - -   Partly Cloudy
1:00 AM 44.6 °F 40.2 °F 41.0 °F 87% 30.01 in 6.2 mi West 8.1 mph - N/A   Partly Cloudy
1:30 AM 42.8 °F 37.0 °F 39.2 °F 87% 30.01 in 6.2 mi WNW 10.4 mph - N/A   Partly Cloudy
2:00 AM 42.8 °F 37.5 °F 39.2 °F 87% 30.04 in 6.2 mi West 9.2 mph - N/A   Scattered Clouds
2:30 AM 42.8 °F 36.6 °F 39.2 °F 87% 30.04 in 6.2 mi West 11.5 mph - N/A   Partly Cloudy
3:00 AM 42.8 °F 37.5 °F 39.2 °F 87% 30.06 in 6.2 mi West 9.2 mph - N/A   Partly Cloudy
3:30 AM 42.8 °F 37.5 °F 39.2 °F 87% 30.06 in 6.2 mi WNW 9.2 mph - N/A   Partly Cloudy
4:00 AM 42.8 °F 38.6 °F 39.2 °F 87% 30.09 in 6.2 mi WNW 6.9 mph - N/A   Scattered Clouds
4:30 AM 42.8 °F 38.0 °F 39.2 °F 87% 30.12 in 6.2 mi NW 8.1 mph - N/A   Mostly Cloudy
5:00 AM 42.8 °F 40.1 °F 39.2 °F 87% 30.12 in 6.2 mi West 4.6 mph - N/A   Scattered Clouds
5:30 AM 42.8 °F 38.6 °F 39.2 °F 87% 30.15 in 6.2 mi NW 6.9 mph - N/A   Scattered Clouds
6:00 AM 42.8 °F 37.5 °F 39.2 °F 87% 30.15 in 6.2 mi NW 9.2 mph - N/A   Scattered Clouds
6:30 AM 44.6 °F 40.2 °F 39.2 °F 81% 30.18 in 6.2 mi WNW 8.1 mph - N/A   Partly Cloudy
7:00 AM 44 °F - 38 °F 74% 30.22 in 19 mi West 8.9 mph - -   Scattered Clouds
7:00 AM 44.6 °F 40.2 °F 39.2 °F 81% 30.21 in 6.2 mi West 8.1 mph - N/A   Partly Cloudy
7:30 AM 44.6 °F 39.2 °F 39.2 °F 81% 30.21 in 6.2 mi WNW 10.4 mph - N/A   Partly Cloudy
8:00 AM 46.4 °F 41.5 °F 41.0 °F 81% 30.24 in 6.2 mi WNW 10.4 mph - N/A   Partly Cloudy
8:30 AM 48.2 °F - 41.0 °F 76% 30.27 in 6.2 mi WNW 12.7 mph - N/A   Partly Cloudy
9:00 AM 48.2 °F - 41.0 °F 76% 30.27 in 6.2 mi NW 16.1 mph - N/A   Partly Cloudy
9:30 AM 50.0 °F - 41.0 °F 71% 30.30 in 6.2 mi WNW 15.0 mph - N/A   Mostly Cloudy
10:00 AM 50.0 °F - 39.2 °F 66% 30.30 in 6.2 mi WNW 15.0 mph - N/A   Mostly Cloudy
10:30 AM 50.0 °F - 39.2 °F 66% 30.33 in 6.2 mi NW 16.1 mph - N/A   Scattered Clouds
11:00 AM 48.2 °F - 37.4 °F 66% 30.36 in 6.2 mi NNW 18.4 mph 33.4 mph N/A Rain Light Rain Showers
11:30 AM 46.4 °F 40.4 °F 39.2 °F 76% 30.36 in 6.2 mi WNW 13.8 mph - N/A   Scattered Clouds
12:00 PM 51.8 °F - 41.0 °F 67% 30.39 in 6.2 mi NW 15.0 mph - N/A   Partly Cloudy
12:30 PM 53.6 °F - 39.2 °F 58% 30.39 in 6.2 mi WNW 16.1 mph - N/A   Mostly Cloudy
1:00 PM 53 °F - 38 °F 46% 30.42 in 25 mi North 8.9 mph - -   Partly Cloudy
1:00 PM 53.6 °F - 37.4 °F 54% 30.39 in 6.2 mi North 8.1 mph - N/A   Mostly Cloudy
1:30 PM 53.6 °F - 37.4 °F 54% 30.42 in 6.2 mi NW 13.8 mph - N/A   Mostly Cloudy
2:00 PM 51.8 °F - 37.4 °F 58% 30.45 in 6.2 mi NW 18.4 mph - N/A   Mostly Cloudy
2:30 PM 55.4 °F - 35.6 °F 47% 30.45 in 6.2 mi WNW 19.6 mph - N/A   Partly Cloudy
3:00 PM 55.4 °F - 35.6 °F 47% 30.45 in 6.2 mi WNW 18.4 mph - N/A   Scattered Clouds
3:30 PM 55.4 °F - 33.8 °F 44% 30.48 in 6.2 mi NNW 13.8 mph - N/A   Scattered Clouds
4:00 PM 53.6 °F - 35.6 °F 51% 30.48 in 6.2 mi NW 13.8 mph - N/A   Scattered Clouds
4:30 PM 51.8 °F - 39.2 °F 62% 30.51 in 6.2 mi NW 12.7 mph - N/A Rain Light Rain Showers
5:00 PM 51.8 °F - 35.6 °F 54% 30.51 in 6.2 mi NW 8.1 mph - N/A   Scattered Clouds
5:30 PM 55.4 °F - 35.6 °F 47% 30.51 in 6.2 mi NW 13.8 mph - N/A   Scattered Clouds
6:00 PM 53.6 °F - 33.8 °F 47% 30.54 in 6.2 mi WNW 16.1 mph - N/A   Scattered Clouds
6:30 PM 53.6 °F - 35.6 °F 51% 30.54 in 6.2 mi WNW 18.4 mph - N/A   Partly Cloudy
7:00 PM 53 °F - 36 °F 40% 30.56 in 31 mi WNW 15.7 mph - -   Partly Cloudy
7:00 PM 53.6 °F - 35.6 °F 51% 30.54 in 6.2 mi WNW 16.1 mph - N/A   Partly Cloudy
7:30 PM 53.6 °F - 35.6 °F 51% 30.57 in 6.2 mi WNW 16.1 mph - N/A   Scattered Clouds
8:00 PM 51.8 °F - 35.6 °F 54% 30.60 in 6.2 mi WNW 13.8 mph - N/A   Partly Cloudy
8:30 PM 50.0 °F - 37.4 °F 62% 30.60 in 6.2 mi WNW 15.0 mph - N/A   Partly Cloudy
9:00 PM 48.2 °F - 35.6 °F 62% 30.63 in 6.2 mi WNW 13.8 mph - N/A   Partly Cloudy
9:30 PM 48.2 °F - 35.6 °F 62% 30.63 in 6.2 mi WNW 11.5 mph - N/A   Partly Cloudy
10:00 PM 46.4 °F 41.5 °F 35.6 °F 66% 30.66 in 6.2 mi NW 10.4 mph - N/A   Partly Cloudy
10:30 PM 46.4 °F 41.1 °F 35.6 °F 66% 30.66 in 6.2 mi NW 11.5 mph - N/A   Partly Cloudy
11:00 PM 44.6 °F 39.7 °F 35.6 °F 71% 30.66 in 6.2 mi NNW 9.2 mph - N/A   Partly Cloudy
11:30 PM 41.0 °F 35.2 °F 35.6 °F 81% 30.69 in 6.2 mi NNW 9.2 mph - N/A   Partly Cloudy